sat.trackr.live / text

‹ back to catalog

STARLINK-4199

NORAD 52857 · 2022-062AD

PAYLOAD ACTIVE UNKNOWN

§ Identity

Operator
Country
US
Launch date
2022-06-17
Launch site
AFETR
Launch vehicle
Mass (kg)
RCS (m²)

Purposes: comms

External: N2YO · Heavens-Above · Gunter

§ Orbital elements

Epoch: 2026-09-19T13:12:14.301792Z

Period
93.85 min
Inclination
53.1600°
Eccentricity
0.0001227
Mean motion
15.34386432 rev/d
Perigee alt
461.9 km
Apogee alt
463.6 km
Semi-major
6,840.9 km
B*
2.4361e-5
RAAN
222.5101°
Arg perigee
93.8483°
Mean anomaly
266.2660°
Rev number
23,534

§ Raw data

STARLINK-41991 52857U 22062AD  26262.55016553  .00000447  00000+0  24361-4 0  99912 52857  53.1600 222.5101 0001227  93.8483 266.2660 15.34386432235348

JSON: /api/v1/satellites/52857 · /tle

For live sub-satellite position, see the globe view (requires WebGL).

§ Visibility from observer

Set your observer location to see the next 7 days of passes ≥ 10°. The values pass through the URL so the page stays shareable.

No JS? Fill the form by hand. The geolocation button needs JavaScript.